Hourly Data Report for October 08, 2014

All times are specified in Local Standard Time (LST). Add 1 hour to adjust for Daylight Saving Time where and when it is observed.

OTTAWA INTL A
ONTARIO

45°19'00.000" N
75°40'00.000" W
114.90 m
6106001
71628
YOW

Download Data

Hourly Data (October 2014)
Hourly Data Report for October 8, 2014
Temp Definition
°C
Dew Point Temp Definition
°C
Rel Hum Definition
%
Wind Dir Definition
10's deg

Wind Spd Definition
km/h
Visibility Definition
km
Stn Press Definition
kPa
Hmdx Definition


Wind Chill Definition


Weather Definition


TIME
00:00 Legend Double Dagger 12.9 9.0 77 12 17 24.1 99.19     LegendNANA
01:00 Legend Double Dagger 13.0 8.9 76 15 16 24.1 99.12     Rain
02:00 Legend Double Dagger 11.8 10.7 93 16 9 12.9 99.00     Rain
03:00 Legend Double Dagger 11.4 11.0 97 9 8 11.3 98.86     Rain
04:00 Legend Double Dagger 11.1 10.7 97 9 11 11.3 98.75     Rain
05:00 Legend Double Dagger 11.2 10.9 98 0 1 6.4 98.69     Rain,Fog
06:00 Legend Double Dagger 11.1 11.0 99 17 3 12.9 98.63     Rain
07:00 Legend Double Dagger 12.1 11.6 97 23 20 12.9 98.65     Rain
08:00 Legend Double Dagger 12.6 11.5 93 25 26 16.1 98.73     LegendNANA
09:00 Legend Double Dagger 12.9 11.0 88 25 29 24.1 98.82     LegendNANA
10:00 Legend Double Dagger 12.8 10.4 85 23 23 24.1 98.85     Rain
11:00 Legend Double Dagger 15.0 9.8 71 24 27 24.1 98.86     LegendNANA
12:00 Legend Double Dagger 14.5 7.1 61 23 35 24.1 98.81     LegendNANA
13:00 Legend Double Dagger 14.4 8.6 68 22 24 24.1 98.78     Mostly Cloudy
14:00 Legend Double Dagger 14.0 7.8 66 28 22 24.1 98.85     Rain Showers
15:00 Legend Double Dagger 12.8 5.5 61 25 43 24.1 98.93     LegendNANA
16:00 Legend Double Dagger 12.4 5.4 62 24 31 24.1 99.03     Mostly Cloudy
17:00 Legend Double Dagger 11.4 4.2 61 27 30 24.1 99.14     LegendNANA
18:00 Legend Double Dagger 8.4 4.8 78 24 26 24.1 99.23     LegendNANA
19:00 Legend Double Dagger 8.7 4.7 76 23 28 24.1 99.32     Mostly Cloudy
20:00 Legend Double Dagger 8.8 4.6 75 23 26 24.1 99.38     LegendNANA
21:00 Legend Double Dagger 8.6 4.3 74 23 26 24.1 99.41     LegendNANA
22:00 Legend Double Dagger 8.1 4.0 75 24 22 24.1 99.41     Cloudy
23:00 Legend Double Dagger 7.7 3.4 74 24 21 24.1 99.43     LegendNANA

Notes on Data Quality.

Legend

  • E = Estimated
  • M = Missing
  • NA = Not Available
  • ‡ = Partner data that is not subject to review by the National Climate Archives
Date modified: